Wind_Speed
6 4 2 4 5 6 4 6 10 12 15 17 19 18 19 21 22 20 19 22 26 31 20 18 24 28 33 35 39 42 43 44 45 47 46 44 45 44 41 40 39 37 37 38
5 3 4 4 6 8 8 10 12 13 14 16 18 20 21 19 17 18 22 25 28 29 27 23 27 30 34 40 44 45 46 46 47 46 44 45 47 47 45 45 42 40 37 36
5 5 4 4 5 4 3 4 6 11 12 14 13 12 12 14 17 21 25 26 27 30 30 32 38 40 43 43 45 45 48 48 47 45 41 41 45 48 50 50 49 47 44 41
7 5 2 3 7 3 5 4 6 9 10 9 10 10 18 18 21 24 27 27 29 30 33 38 41 42 44 45 46 48 45 46 48 46 46 46 45 43 46 50 49 47 44 41
7 4 1 4 5 3 6 7 8 9 9 9 12 10 22 23 23 24 28 29 30 33 37 41 43 46 48 48 45 44 45 48 49 49 48 48 47 46 45 44 44 46 46 45
8 4 0 2 7 6 7 8 8 8 7 6 14 10 19 24 25 27 27 28 32 37 39 41 44 45 45 43 45 45 46 47 49 49 49 49 48 47 46 47 47 47 47 45
8 5 2 4 6 6 9 8 8 7 7 9 15 14 19 21 22 26 30 33 34 36 38 40 40 41 43 44 44 48 49 48 51 52 52 52 52 51 51 49 46 41 38 36
7 8 5 7 6 6 9 6 4 4 8 11 17 10 19 21 25 24 26 30 31 32 35 36 37 39 41 45 48 49 51 54 54 53 54 54 54 53 51 46 43 39 37 37
10 12 8 7 8 6 12 8 10 12 14 14 16 22 25 26 26 26 26 27 28 30 31 36 40 42 46 48 50 52 53 53 53 54 54 51 45 42 38 36 37 38 37 35
11 12 11 9 9 10 10 11 12 11 12 12 16 25 16 29 28 29 31 31 32 35 40 42 46 49 51 54 57 57 58 59 57 54 51 44 39 36 36 37 37 35 32 29
13 11 14 13 10 14 16 15 15 15 18 17 13 20 29 31 31 33 33 35 37 41 44 47 51 55 56 57 58 59 58 55 53 51 45 41 38 38 38 38 35 31 30 28
12 13 14 14 13 13 13 15 15 17 19 24 24 25 32 33 35 36 37 39 42 45 49 54 57 59 59 59 57 56 55 54 50 44 40 38 37 36 33 31 28 26 22 22
13 12 13 12 13 13 15 17 18 19 20 25 23 30 33 35 36 37 40 41 45 49 54 56 57 57 56 55 51 50 49 45 40 38 37 37 34 31 28 25 25 24 23 21
14 12 11 14 14 17 16 17 17 18 20 23 27 32 32 35 37 40 40 43 49 52 55 56 58 56 52 48 46 43 39 34 33 34 34 33 30 25 25 24 24 23 22 21
11 11 12 13 13 14 15 15 17 18 19 21 27 30 33 35 37 39 43 47 48 51 54 56 55 54 49 41 36 32 29 30 31 31 32 30 29 28 28 27 27 26 25 25
12 11 12 10 9 10 12 13 16 18 21 22 26 30 32 34 36 40 44 45 49 51 50 53 49 41 34 27 24 25 28 30 30 29 31 32 31 30 29 27 25 24 23 22
10 10 10 7 7 9 10 12 15 18 21 24 26 29 32 33 38 40 42 46 43 43 41 39 34 29 26 25 26 27 29 29 31 32 32 33 32 29 27 25 24 22 20 18
9 8 7 5 6 7 9 12 16 19 23 25 25 29 29 35 40 38 41 38 37 35 32 29 28 29 28 27 28 29 31 31 33 35 34 33 32 30 27 25 23 21 19 17
8 7 6 4 5 8 10 13 17 20 22 24 26 28 30 34 36 39 36 34 32 29 29 29 29 28 28 30 31 31 32 34 32 32 32 31 31 29 29 27 24 22 20 18
8 7 5 4 6 9 11 14 17 19 20 23 28 27 31 30 30 25 26 27 26 28 30 29 29 30 32 32 32 34 35 32 33 32 32 31 32 31 28 26 25 23 21 19
8 7 5 5 8 9 11 13 16 19 21 24 26 27 31 29 29 21 23 23 24 23 26 27 27 29 32 34 37 37 36 35 36 33 33 32 33 31 29 27 27 26 23 21
9 8 7 6 8 10 12 14 17 19 21 25 24 27 28 28 25 18 20 20 19 21 23 24 26 28 33 36 37 38 40 37 36 36 34 33 33 32 30 28 27 27 28 28
10 7 5 7 9 11 12 14 17 19 21 24 22 27 25 26 19 14 16 15 17 20 21 22 24 29 32 34 37 40 42 40 37 36 35 35 35 33 31 30 29 29 30 29
8 5 6 8 9 10 11 14 16 18 21 21 22 25 23 23 15 11 17 13 14 19 21 22 24 25 30 32 35 39 41 40 39 38 37 35 35 33 31 30 30 29 28 28
7 6 7 8 9 9 11 13 15 17 20 19 22 24 22 21 12 8 13 13 12 14 18 20 22 25 28 30 33 36 38 39 39 41 39 37 35 32 29 29 29 29 28 27
7 7 7 7 8 9 11 13 15 16 20 18 22 23 20 20 12 6 10 12 9 12 14 17 20 24 26 28 30 35 37 37 36 38 40 39 36 32 25 25 27 28 28 27
Wind_Direction
305 307 170 279 309 295 321 258 262 279 272 286 292 303 305 311 313 314 317 325 326 326 329 297 292 299 308 309 311 308 305 303 302 309 306 306 305 307 306 304 303 302 299 296
288 260 282 309 299 305 300 289 294 296 289 291 297 301 304 310 316 314 321 324 325 323 317 294 300 301 302 304 307 307 305 308 311 308 309 310 311 310 309 308 305 302 300 296
213 268 288 314 299 307 302 236 296 288 297 296 303 321 332 321 317 315 318 319 315 311 308 303 302 303 303 306 310 308 307 307 308 306 306 306 307 307 306 304 303 301 298 294
252 265 288 309 306 345 311 301 299 307 312 325 329 296 313 321 318 314 312 313 311 305 303 296 301 304 307 311 309 307 308 309 307 306 305 303 301 299 297 298 298 295 292 288
253 259 283 289 298 302 245 300 309 311 300 307 326 322 289 313 314 309 307 305 302 297 299 302 305 306 308 309 307 310 310 307 307 307 305 303 300 297 293 289 288 288 289 287
235 213 270 298 284 309 312 308 310 309 307 338 312 330 301 307 310 305 303 302 300 299 300 303 305 306 306 308 311 309 307 307 307 307 306 303 301 298 295 294 294 293 292 290
228 223 223 243 282 306 325 332 337 340 328 267 311 324 276 297 298 300 303 306 304 302 302 303 305 307 307 308 310 309 308 309 311 311 308 305 304 302 301 299 299 297 294 290
215 242 219 260 270 282 308 303 239 284 288 285 301 299 307 309 308 307 305 304 304 303 302 302 299 300 307 310 310 310 312 312 309 307 304 304 305 305 306 306 303 299 291 290
215 239 257 260 281 286 293 294 299 301 306 317 274 314 310 315 313 310 311 306 304 302 300 302 307 309 309 310 310 311 309 307 306 309 312 316 315 312 308 302 299 297 295 293
231 251 269 271 290 293 286 299 322 315 307 308 301 314 303 317 317 318 318 316 313 312 313 315 314 314 315 315 314 314 313 315 319 319 322 324 322 318 315 314 314 311 308 302
230 247 268 270 278 290 298 302 304 300 300 302 312 290 311 319 321 321 320 318 319 319 317 317 317 317 317 315 315 318 321 320 319 323 327 324 323 320 319 316 314 312 310 306
240 249 254 269 282 285 284 294 295 297 301 313 320 309 322 323 321 322 322 324 323 320 321 320 319 316 316 319 322 323 320 324 324 322 322 322 321 322 322 320 322 319 319 320
246 254 275 287 295 295 292 288 292 303 313 312 319 310 318 321 323 323 325 325 323 324 321 317 316 319 322 322 325 323 325 324 323 323 324 327 329 329 328 324 331 330 321 318
258 267 267 277 293 295 291 296 304 311 312 314 322 317 322 323 324 327 328 328 326 324 321 322 322 322 320 321 321 323 324 327 327 329 333 335 337 341 338 332 329 326 323 320
247 264 277 282 282 283 293 302 308 313 317 317 318 322 326 328 330 331 330 330 328 325 327 325 320 316 319 322 326 332 335 336 337 339 341 344 344 338 333 328 326 322 319 316
245 261 275 276 280 290 300 310 318 322 323 326 325 327 332 334 333 335 334 333 332 332 330 325 329 335 339 344 351 351 347 345 345 347 347 340 338 334 333 333 332 329 325 318
246 257 264 270 295 301 312 319 324 326 330 328 332 337 337 335 339 343 339 337 338 344 350 1 9 16 18 16 6 359 354 351 352 351 348 346 347 346 343 341 340 336 329 321
246 248 249 272 291 302 314 324 331 333 333 333 338 340 340 343 345 349 347 351 358 3 11 24 29 27 21 14 8 3 358 357 357 356 360 3 5 8 7 6 5 3 0 356
240 242 251 270 299 305 321 332 335 333 333 336 342 344 348 351 350 358 15 20 30 35 38 34 31 26 23 17 10 9 7 2 4 7 10 9 8 8 7 8 9 9 7 7
244 249 260 284 299 313 326 332 329 331 333 339 344 347 351 357 354 9 24 22 32 40 36 36 34 26 23 18 18 14 11 11 12 14 11 11 11 10 11 12 13 14 17 22
241 245 257 279 297 309 322 321 333 334 339 340 345 349 354 357 1 16 23 31 31 40 33 30 31 27 25 24 21 17 17 16 15 13 11 14 14 15 18 21 22 23 35 45
234 236 242 268 292 311 317 327 333 338 342 344 346 349 357 359 5 25 28 29 35 35 28 27 26 28 29 26 22 21 21 20 17 17 19 20 18 21 22 28 31 42 51 58
225 230 253 280 302 311 314 325 334 341 344 341 346 353 359 0 10 28 23 20 37 30 25 22 20 28 29 27 24 25 25 24 22 22 24 24 22 23 30 39 48 56 61 59
220 238 264 282 297 303 315 327 335 339 339 343 349 355 0 1 11 31 31 34 43 35 26 20 20 23 27 25 26 28 28 28 28 28 28 27 25 30 40 52 61 61 57 52
223 247 264 282 293 304 319 327 330 334 339 346 352 355 0 1 6 10 22 19 24 23 22 21 19 22 24 25 27 28 29 29 29 30 29 30 28 36 48 58 58 57 50 48
228 245 260 284 296 310 318 322 325 331 344 348 353 353 359 1 6 357 14 4 8 20 14 14 16 19 20 24 27 28 29 27 27 28 29 31 32 38 52 57 57 51 50 50
Height
5894 5895 5897 5896 5897 5898 5898 5899 5898 5898 5897 5895 5893 5890 5887 5884 5881 5877 5874 5872 5868 5862 5857 5854 5851 5847 5844 5840 5836 5832 5829 5826 5823 5816 5810 5805 5800 5795 5790 5787 5782 5779 5776 5774
5894 5894 5893 5894 5895 5895 5896 5896 5895 5895 5894 5893 5890 5888 5885 5881 5877 5874 5871 5868 5865 5860 5856 5852 5847 5843 5839 5835 5831 5826 5821 5816 5811 5806 5801 5794 5788 5783 5778 5775 5772 5770 5767 5763
5893 5893 5892 5893 5893 5894 5894 5895 5893 5892 5891 5889 5887 5884 5882 5879 5875 5871 5868 5865 5861 5857 5852 5847 5841 5837 5832 5827 5822 5817 5812 5807 5802 5798 5794 5789 5782 5774 5769 5765 5760 5757 5756 5754
5891 5891 5891 5892 5892 5893 5893 5892 5891 5889 5888 5891 5886 5889 5881 5876 5871 5867 5864 5861 5858 5852 5846 5841 5835 5830 5823 5818 5813 5808 5803 5798 5794 5790 5785 5781 5776 5770 5762 5754 5749 5745 5742 5739
5890 5890 5891 5892 5892 5891 5891 5890 5889 5888 5887 5886 5884 5883 5876 5873 5869 5863 5860 5857 5853 5847 5841 5835 5829 5822 5817 5812 5806 5803 5797 5791 5785 5779 5773 5767 5762 5757 5752 5746 5740 5735 5728 5723
5888 5889 5890 5890 5889 5889 5888 5888 5887 5887 5886 5887 5883 5882 5877 5871 5867 5861 5857 5853 5848 5842 5836 5830 5823 5817 5812 5806 5800 5795 5790 5783 5775 5769 5762 5754 5749 5743 5738 5732 5725 5720 5714 5709
5887 5888 5888 5889 5889 5888 5887 5887 5889 5889 5888 5889 5881 5878 5874 5870 5864 5859 5853 5847 5843 5837 5831 5824 5819 5813 5805 5800 5795 5786 5779 5772 5764 5756 5747 5740 5733 5726 5720 5715 5711 5704 5699 5694
5887 5888 5888 5888 5888 5888 5886 5887 5888 5887 5888 5887 5877 5877 5869 5866 5861 5856 5851 5845 5838 5833 5827 5821 5816 5810 5804 5796 5788 5779 5771 5762 5753 5744 5736 5729 5722 5713 5705 5699 5693 5689 5685 5681
5884 5884 5885 5886 5886 5887 5885 5885 5883 5882 5879 5878 5877 5869 5866 5861 5856 5852 5846 5841 5836 5830 5824 5817 5809 5802 5795 5788 5778 5770 5760 5751 5743 5734 5726 5718 5710 5703 5696 5688 5682 5677 5672 5668
5881 5882 5883 5884 5884 5884 5883 5882 5881 5880 5878 5876 5874 5866 5864 5857 5852 5846 5840 5834 5827 5821 5814 5806 5798 5790 5781 5771 5760 5749 5740 5731 5724 5717 5710 5701 5694 5687 5681 5674 5669 5664 5659 5655
5879 5881 5881 5881 5882 5881 5879 5878 5876 5875 5873 5871 5870 5865 5857 5852 5847 5840 5834 5827 5820 5812 5803 5795 5785 5774 5765 5755 5745 5736 5728 5721 5713 5705 5698 5690 5684 5677 5670 5664 5658 5653 5648 5644
5876 5878 5878 5877 5877 5877 5876 5874 5873 5871 5869 5865 5863 5856 5852 5847 5841 5834 5827 5820 5811 5803 5793 5781 5771 5760 5751 5742 5735 5726 5716 5708 5702 5694 5688 5682 5675 5669 5662 5656 5650 5645 5641 5637
5872 5874 5874 5874 5874 5872 5871 5870 5868 5867 5865 5860 5859 5852 5847 5841 5835 5828 5821 5813 5803 5794 5783 5773 5761 5751 5742 5733 5726 5716 5709 5700 5694 5688 5681 5675 5669 5662 5655 5649 5644 5640 5636 5632
5869 5871 5872 5872 5871 5868 5867 5866 5864 5863 5861 5858 5853 5847 5842 5837 5830 5823 5815 5806 5796 5785 5773 5762 5751 5742 5732 5726 5719 5711 5703 5696 5690 5683 5676 5669 5663 5657 5651 5646 5640 5636 5631 5627
5867 5867 5868 5867 5866 5865 5864 5862 5861 5860 5857 5855 5849 5844 5837 5832 5825 5818 5809 5800 5789 5778 5767 5754 5742 5732 5724 5718 5712 5706 5700 5693 5686 5679 5672 5665 5659 5653 5647 5641 5635 5630 5625 5621
5863 5864 5864 5863 5863 5862 5861 5859 5858 5855 5852 5849 5844 5839 5833 5827 5821 5813 5803 5793 5782 5772 5760 5746 5733 5723 5717 5714 5709 5704 5697 5691 5684 5677 5670 5663 5655 5649 5642 5636 5630 5625 5620 5615
5861 5861 5861 5860 5860 5859 5859 5856 5854 5851 5848 5845 5840 5835 5830 5823 5816 5808 5798 5788 5778 5766 5754 5742 5732 5725 5719 5714 5709 5703 5697 5690 5683 5676 5668 5660 5652 5644 5638 5631 5626 5620 5615 5611
5857 5857 5858 5857 5857 5857 5856 5853 5850 5848 5844 5841 5837 5832 5826 5819 5811 5804 5795 5784 5773 5764 5755 5746 5738 5730 5723 5717 5711 5705 5698 5690 5682 5675 5666 5658 5651 5643 5637 5630 5625 5619 5614 5609
5854 5854 5855 5855 5854 5854 5852 5850 5847 5844 5842 5838 5833 5828 5822 5816 5807 5798 5790 5782 5775 5766 5759 5751 5743 5736 5728 5722 5715 5707 5700 5691 5684 5675 5667 5660 5652 5645 5638 5631 5626 5620 5615 5609
5850 5851 5852 5851 5851 5851 5849 5846 5844 5841 5840 5835 5830 5825 5819 5814 5806 5799 5792 5786 5779 5770 5763 5755 5747 5740 5732 5726 5719 5710 5701 5694 5685 5678 5670 5663 5655 5647 5640 5633 5627 5621 5615 5611
5847 5848 5848 5848 5848 5848 5846 5844 5841 5840 5839 5832 5827 5821 5816 5810 5803 5797 5791 5786 5780 5772 5766 5760 5752 5744 5737 5729 5721 5713 5705 5696 5688 5681 5673 5665 5657 5650 5643 5636 5629 5623 5618 5614
5845 5846 5846 5846 5846 5846 5843 5840 5839 5836 5832 5828 5824 5819 5813 5806 5800 5795 5791 5787 5780 5774 5768 5762 5755 5748 5740 5732 5725 5717 5708 5699 5691 5685 5677 5669 5661 5654 5647 5640 5634 5629 5624 5620
5843 5844 5844 5844 5843 5842 5840 5838 5835 5832 5829 5826 5822 5816 5810 5804 5799 5795 5791 5787 5781 5775 5770 5764 5758 5750 5742 5736 5729 5721 5712 5703 5696 5688 5680 5673 5666 5658 5651 5645 5640 5636 5632 5629
5840 5840 5841 5841 5840 5839 5837 5835 5832 5830 5827 5824 5819 5814 5808 5803 5799 5795 5791 5787 5781 5776 5771 5766 5760 5753 5746 5740 5733 5725 5716 5709 5701 5693 5685 5677 5670 5663 5657 5652 5648 5645 5641 5637
5838 5838 5838 5838 5837 5836 5835 5832 5830 5828 5825 5821 5816 5811 5807 5802 5798 5795 5791 5787 5782 5778 5773 5768 5762 5755 5749 5743 5736 5729 5722 5715 5707 5699 5691 5683 5676 5669 5665 5661 5656 5653 5649 5645
5835 5835 5836 5835 5834 5833 5832 5830 5828 5826 5822 5819 5814 5810 5805 5801 5797 5794 5791 5787 5782 5778 5774 5769 5764 5758 5752 5746 5740 5733 5726 5720 5713 5705 5698 5690 5683 5676 5672 5669 5665 5661 5656 5652